This demonstration page uses our WeatherBlox Daily Observations layout. Learn more.

38.89511, -77.03637

Hourly Observations for June 28, 2015

Temp ( °F °C ) Dew Point ( °F °C ) Humidity (%) Winds ( mph kmh ) Pressure ( in mb ) Visibility ( mi km ) Precip ( " mm )
12:52 am 00:52 Cloudy 72 22 66 19 83 83 NNE 5 7 29.68 1005 7 11.265408 0 0
1:52 am 01:52 Cloudy with Mist and Fog 72 22 66 19 83 83 NNE 7 11 29.68 1005 6 9.656064 0 0
2:22 am 02:22 Cloudy with Light Rain 70 21 64 18 83 83 NW 14 22 29.68 1005 10 16.09344 0 0
2:37 am 02:37 Cloudy with Light Rain 70 21 64 18 83 83 NNW 10 17 29.68 1005 10 16.09344 0.001 0.001
2:52 am 02:52 Cloudy with Light Rain 70 21 64 18 83 83 NNW 10 17 29.68 1005 10 16.09344 0.001 0.001
3:23 am 03:23 Cloudy 70 21 64 18 83 83 NNW 5 7 29.68 1005 10 16.09344 0 0
3:52 am 03:52 Partly Cloudy 68 20 63 17 83 83 NNW 5 7 29.68 1005 10 16.09344 0 0
4:52 am 04:52 Partly Cloudy 68 20 63 17 83 83 NW 3 6 29.68 1005 10 16.09344 0 0
5:52 am 05:52 Mostly Cloudy 68 20 63 17 83 83 NNW 7 11 29.71 1006 10 16.09344 0 0
6:52 am 06:52 Mostly Cloudy 68 20 63 17 83 83 W 3 6 29.74 1007 10 16.09344 0 0
7:52 am 07:52 Cloudy 70 21 63 17 78 78 N 5 7 29.74 1007 10 16.09344 0 0
8:52 am 08:52 Cloudy 72 22 63 17 73 73 SSW 7 11 29.74 1007 10 16.09344 0 0
9:52 am 09:52 Mostly Cloudy 73 23 64 18 74 74 SW 7 11 29.74 1007 10 16.09344 0 0
10:52 am 10:52 Mostly Cloudy 75 24 64 18 69 69 SSW 10 17 29.74 1007 10 16.09344 0 0
11:52 am 11:52 Mostly Cloudy 77 25 57 14 51 51 WSW 15 24 29.74 1007 10 16.09344 0 0
12:52 pm 12:52 Mostly Cloudy 79 26 57 14 48 48 WSW 10 17 29.74 1007 10 16.09344 0 0
1:52 pm 13:52 Cloudy 81 27 59 15 48 48 W 13 20 29.74 1007 10 16.09344 0 0
2:52 pm 14:52 Mostly Cloudy 79 26 57 14 48 48 W 12 19 29.77 1008 10 16.09344 0 0
3:52 pm 15:52 Cloudy 81 27 57 14 45 45 W 15 24 29.77 1008 10 16.09344 0 0
4:52 pm 16:52 Mostly Cloudy 79 26 57 14 48 48 WNW 14 22 29.77 1008 10 16.09344 0 0
5:52 pm 17:52 Mostly Cloudy 79 26 57 14 48 48 WNW 8 13 29.8 1009 10 16.09344 0 0
6:52 pm 18:52 Mostly Cloudy 79 26 57 14 48 48 W 12 19 29.83 1010 10 16.09344 0 0
7:52 pm 19:52 Partly Cloudy 77 25 55 13 47 47 WNW 9 15 29.85 1011 10 16.09344 0 0
9:52 pm 21:52 Mostly Clear 73 23 55 13 53 53 SW 5 7 29.88 1012 10 16.09344 0 0
10:52 pm 22:52 Partly Cloudy 73 23 55 13 53 53 W 9 15 29.91 1013 10 16.09344 0 0
11:52 pm 23:52 Mostly Clear 70 21 55 13 60 60 SW 6 9 29.88 1012 10 16.09344 0 0

Powered by AerisWeather